H1 CPF 2 NER 2025 3 5 9 064 01 glonass116 H2 0907001 9116 36111 2025 3 5 0 0 0 2025 3 8 23 45 0 900 1 1 0 0 0 1 H9 10 0 60739 0.00000 0 -4184865.779 -17828568.027 -17741295.923 10 0 60739 900.00000 0 -3855252.937 -19859283.074 -15519756.416 10 0 60739 1800.00000 0 -3716304.800 -21619501.553 -12996382.936 10 0 60739 2700.00000 0 -3731324.780 -23059847.677 -10220238.022 10 0 60739 3600.00000 0 -3855464.045 -24141168.208 -7245311.254 10 0 60739 4500.00000 0 -4037846.321 -24836062.573 -4129465.201 10 0 60739 5400.00000 0 -4223954.296 -25129936.616 -933304.580 10 0 60739 6300.00000 0 -4358175.603 -25021535.840 2281008.772 10 0 60739 7200.00000 0 -4386399.474 -24522936.005 5450971.280 10 0 60739 8100.00000 0 -4258553.043 -23658991.984 8514958.879 10 0 60739 9000.00000 0 -3930968.901 -22466268.707 11413429.620 10 0 60739 9900.00000 0 -3368482.834 -20991499.960 14090083.562 10 0 60739 10800.00000 0 -2546172.297 -19289640.588 16492957.015 10 0 60739 11700.00000 0 -1450661.575 -17421594.642 18575429.782 10 0 60739 12600.00000 0 -80938.085 -15451715.307 20297125.997 10 0 60739 13500.00000 0 1551355.034 -13445181.669 21624691.614 10 0 60739 14400.00000 0 3422162.826 -11465362.003 22532434.169 10 0 60739 15300.00000 0 5495789.254 -9571273.450 23002813.259 10 0 60739 16200.00000 0 7726163.149 -7815243.380 23026773.129 10 0 60739 17100.00000 0 10058547.310 -6240869.020 22603911.725 10 0 60739 18000.00000 0 12431620.283 -4881359.198 21742483.559 10 0 60739 18900.00000 0 14779845.077 -3758326.010 20459236.725 10 0 60739 19800.00000 0 17036027.164 -2881075.392 18779087.338 10 0 60739 20700.00000 0 19133956.244 -2246424.910 16734637.549 10 0 60739 21600.00000 0 21011022.682 -1839055.128 14365546.131 10 0 60739 22500.00000 0 22610700.397 -1632378.798 11717763.265 10 0 60739 23400.00000 0 23884793.293 -1589890.555 8842643.837 10 0 60739 24300.00000 0 24795351.910 -1666939.756 5795955.823 10 0 60739 25200.00000 0 25316180.480 -1812851.323 2636802.508 10 0 60739 26100.00000 0 25433871.433 -1973304.846 -573520.861 10 0 60739 27000.00000 0 25148323.994 -2092871.177 -3772714.021 10 0 60739 27900.00000 0 24472724.987 -2117599.048 -6898679.259 10 0 60739 28800.00000 0 23432992.413 -1997541.972 -9890726.037 10 0 60739 29700.00000 0 22066704.876 -1689118.099 -12690749.171 10 0 60739 30600.00000 0 20421561.441 -1157202.599 -15244357.545 10 0 60739 31500.00000 0 18553436.181 -376863.356 -17501931.261 10 0 60739 32400.00000 0 16524108.636 665334.322 -19419586.649 10 0 60739 33300.00000 0 14398764.863 1970510.236 -20960030.390 10 0 60739 34200.00000 0 12243373.336 3527174.832 -22093286.180 10 0 60739 35100.00000 0 10122045.044 5311471.686 -22797279.884 10 0 60739 36000.00000 0 8094487.714 7287948.351 -23058271.880 10 0 60739 36900.00000 0 6213660.107 9410824.840 -22871128.077 10 0 60739 37800.00000 0 4523723.890 11625708.168 -22239424.274 10 0 60739 38700.00000 0 3058378.151 13871682.593 -21175381.469 10 0 60739 39600.00000 0 1839645.646 16083689.299 -19699633.017 10 0 60739 40500.00000 0 877160.934 18195096.880 -17840827.661 10 0 60739 41400.00000 0 167989.564 20140355.727 -15635075.620 10 0 60739 42300.00000 0 -303014.878 21857625.520 -13125248.052 10 0 60739 43200.00000 0 -562331.709 23291265.823 -10360143.199 10 0 60739 44100.00000 0 -646410.052 24394085.251 -7393535.252 10 0 60739 45000.00000 0 -599880.226 25129254.559 -4283124.588 10 0 60739 45900.00000 0 -473416.301 25471803.053 -1089410.166 10 0 60739 46800.00000 0 -321341.372 25409635.238 2125493.425 10 0 60739 47700.00000 0 -199078.108 24944024.890 5299070.444 10 0 60739 48600.00000 0 -160553.683 24089565.918 8369625.563 10 0 60739 49500.00000 0 -255670.044 22873582.416 11277487.977 10 0 60739 50400.00000 0 -527947.552 21335023.183 13966173.957 10 0 60739 51300.00000 0 -1012442.452 19522887.741 16383484.832 10 0 60739 52200.00000 0 -1734026.800 17494250.454 18482518.962 10 0 60739 53100.00000 0 -2706103.915 15311966.080 20222578.182 10 0 60739 54000.00000 0 -3929813.866 13042153.043 21569951.641 10 0 60739 54900.00000 0 -5393762.789 10751559.620 22498562.520 10 0 60739 55800.00000 0 -7074287.772 8504922.714 22990465.950 10 0 60739 56700.00000 0 -8936246.695 6362428.663 23036189.360 10 0 60739 57600.00000 0 -10934300.563 4377380.913 22634909.488 10 0 60739 58500.00000 0 -13014635.466 2594170.488 21794463.261 10 0 60739 59400.00000 0 -15117053.095 1046632.354 20531192.755 10 0 60739 60300.00000 0 -17177343.533 -243145.365 18869627.357 10 0 60739 61200.00000 0 -19129842.225 -1265511.153 16842009.177 10 0 60739 62100.00000 0 -20910065.377 -2023411.483 14487670.550 10 0 60739 63000.00000 0 -22457314.552 -2532018.383 11852275.151 10 0 60739 63900.00000 0 -23717142.301 -2817839.845 8986936.871 10 0 60739 64800.00000 0 -24643576.172 -2917351.338 5947232.960 10 0 60739 65700.00000 0 -25201008.265 -2875206.662 2792130.035 10 0 60739 66600.00000 0 -25365671.210 -2742104.025 -417156.517 10 0 60739 67500.00000 0 -25126638.481 -2572397.782 -3618347.845 10 0 60739 68400.00000 0 -24486306.803 -2421557.049 -6749308.710 10 0 60739 69300.00000 0 -23460339.934 -2343578.954 -9749252.789 10 0 60739 70200.00000 0 -22077075.659 -2388466.287 -12559922.680 10 0 60739 71100.00000 0 -20376420.310 -2599876.706 -15126721.542 10 0 60739 72000.00000 0 -18408276.570 -3013043.481 -17399774.217 10 0 60739 72900.00000 0 -16230569.864 -3653056.371 -19334897.170 10 0 60739 73800.00000 0 -13906955.357 -4533576.149 -20894458.399 10 0 60739 74700.00000 0 -11504300.907 -5656038.076 -22048110.643 10 0 60739 75600.00000 0 -9090050.567 -7009379.116 -22773383.707 10 0 60739 76500.00000 0 -6729578.144 -8570301.770 -23056124.465 10 0 60739 77400.00000 0 -4483640.691 -10304064.898 -22890775.913 10 0 60739 78300.00000 0 -2406037.588 -12165769.772 -22280489.740 10 0 60739 79200.00000 0 -541572.257 -14102088.834 -21237069.902 10 0 60739 80100.00000 0 1075598.984 -16053365.864 -19780747.947 10 0 60739 81000.00000 0 2423162.643 -17956000.533 -17939793.914 10 0 60739 81900.00000 0 3491339.079 -19745018.114 -15749969.880 10 0 60739 82800.00000 0 4283040.640 -21356716.930 -13253836.308 10 0 60739 83700.00000 0 4813491.238 -22731282.613 -10499924.343 10 0 60739 84600.00000 0 5109324.327 -23815259.233 -7541789.992 10 0 60739 85500.00000 0 5207198.408 -24563773.110 -4436968.690 10 0 60740 0.00000 0 5151989.673 -24942415.366 -1245851.250 10 0 60740 900.00000 0 4994639.340 -24928703.719 1969498.121 10 0 60740 1800.00000 0 4789748.127 -24513061.212 5146553.664 10 0 60740 2700.00000 0 4593020.785 -23699271.169 8223551.055 10 0 60740 3600.00000 0 4458670.085 -22504388.635 11140692.717 10 0 60740 4500.00000 0 4436891.143 -20958112.440 13841313.005 10 0 60740 5400.00000 0 4571513.752 -19101644.526 16272979.894 10 0 60740 6300.00000 0 4897932.582 -16986084.745 18388511.647 10 0 60740 7200.00000 0 5441403.066 -14670428.707 20146888.828 10 0 60740 8100.00000 0 6215775.109 -12219252.666 21514044.459 10 0 60740 9000.00000 0 7222718.111 -9700182.093 22463517.696 10 0 60740 9900.00000 0 8451470.065 -7181249.288 22976959.163 10 0 60740 10800.00000 0 9879121.471 -4728249.494 23044479.092 10 0 60740 11700.00000 0 11471422.512 -2402204.652 22664832.319 10 0 60740 12600.00000 0 13184080.156 -257039.148 21845437.208 10 0 60740 13500.00000 0 14964491.549 1662437.165 20602228.594 10 0 60740 14400.00000 0 16753841.972 3322156.283 18959347.703 10 0 60740 15300.00000 0 18489480.470 4699963.457 16948674.979 10 0 60740 16200.00000 0 20107474.663 5786285.432 14609214.522 10 0 60740 17100.00000 0 21545238.661 6584269.009 11986341.517 10 0 60740 18000.00000 0 22744124.716 7109385.389 9130926.710 10 0 60740 18900.00000 0 23651870.526 7388517.964 6098354.296 10 0 60740 19800.00000 0 24224799.853 7458572.724 2947451.753 10 0 60740 20700.00000 0 24429684.098 7364670.421 -260647.982 10 0 60740 21600.00000 0 24245186.506 7157997.189 -3463690.106 10 0 60740 22500.00000 0 23662827.895 6893404.748 -6599504.462 10 0 60740 23400.00000 0 22687432.741 6626861.875 -9607211.434 10 0 60740 24300.00000 0 21337036.194 6412865.210 -12428403.687 10 0 60740 25200.00000 0 19642255.065 6301919.176 -15008280.692 10 0 60740 26100.00000 0 17645148.373 6338192.005 -17296713.784 10 0 60740 27000.00000 0 15397614.291 6557447.403 -19249221.031 10 0 60740 27900.00000 0 12959389.772 6985339.858 -20827832.966 10 0 60740 28800.00000 0 10395735.645 7636146.296 -22001832.357 10 0 60740 29700.00000 0 7774903.120 8511988.503 -22748353.733 10 0 60740 30600.00000 0 5165486.595 9602580.100 -23052831.051 10 0 60740 31500.00000 0 2633772.491 10885509.914 -22909284.753 10 0 60740 32400.00000 0 241193.888 12327051.037 -22320442.514 10 0 60740 33300.00000 0 -1958003.623 13883462.803 -21297691.054 10 0 60740 34200.00000 0 -3918788.208 15502732.113 -19860859.563 10 0 60740 35100.00000 0 -5606976.321 17126681.950 -18037838.471 10 0 60740 36000.00000 0 -7000407.952 18693359.245 -15864040.440 10 0 60740 36900.00000 0 -8089614.189 20139602.217 -13381713.604 10 0 60740 37800.00000 0 -8877950.012 21403679.425 -10639120.044 10 0 60740 38700.00000 0 -9381187.715 22427889.402 -7689595.316 10 0 60740 39600.00000 0 -9626589.141 23161011.077 -4590507.394 10 0 60740 40500.00000 0 -9651497.023 23560501.292 -1402135.648 10 0 60740 41400.00000 0 -9501506.156 23594346.232 1813507.828 10 0 60740 42300.00000 0 -9228292.979 23242488.170 4993890.784 10 0 60740 43200.00000 0 -8887196.662 22497766.966 8077182.897 10 0 60740 44100.00000 0 -8534655.234 21366336.298 11003462.784 10 0 60740 45000.00000 0 -8225606.344 19867537.002 13715885.752 10 0 60740 45900.00000 0 -8010963.430 18033232.803 16161789.149 10 0 60740 46800.00000 0 -7935274.620 15906636.418 18293713.670 10 0 60740 47700.00000 0 -8034663.637 13540675.348 20070320.890 10 0 60740 48600.00000 0 -8335139.697 10995965.810 21457189.710 10 0 60740 49500.00000 0 -8851347.646 8338479.285 22427476.919 10 0 60740 50400.00000 0 -9585810.826 5636998.744 22962429.928 10 0 60740 51300.00000 0 -10528698.396 2960469.882 23051742.631 10 0 60740 52200.00000 0 -11658126.889 375356.683 22693748.335 10 0 60740 53100.00000 0 -12940983.464 -2056889.826 21895446.704 10 0 60740 54000.00000 0 -14334236.675 -4282145.782 20672364.633 10 0 60740 54900.00000 0 -15786680.313 -6255616.933 19048253.930 10 0 60740 55800.00000 0 -17241037.876 -7943447.566 17054631.567 10 0 60740 56700.00000 0 -18636340.207 -9323870.457 14730171.079 10 0 60740 57600.00000 0 -19910477.348 -10387851.362 12119956.391 10 0 60740 58500.00000 0 -21002818.210 -11139202.433 9274611.967 10 0 60740 59400.00000 0 -21856788.614 -11594160.986 6249325.549 10 0 60740 60300.00000 0 -22422299.721 -11780452.223 3102781.896 10 0 60740 61200.00000 0 -22657924.821 -11735876.084 -103972.138 10 0 60740 62100.00000 0 -22532732.763 -11506478.281 -3308709.432 10 0 60740 63000.00000 0 -22027700.449 -11144383.093 -6449228.456 10 0 60740 63900.00000 0 -21136644.317 -10705379.685 -9464559.703 10 0 60740 64800.00000 0 -19866630.801 -10246364.219 -12296149.111 10 0 60740 65700.00000 0 -18237847.514 -9822746.039 -14888995.387 10 0 60740 66600.00000 0 -16282939.521 -9485927.823 -17192718.936 10 0 60740 67500.00000 0 -14045837.411 -9280966.454 -19162541.573 10 0 60740 68400.00000 0 -11580125.106 -9244513.746 -20760157.987 10 0 60740 69300.00000 0 -8947014.629 -9403124.404 -21954482.012 10 0 60740 70200.00000 0 -6213011.344 -9772003.147 -22722253.308 10 0 60740 71100.00000 0 -3447366.100 -10354244.489 -23048492.694 10 0 60740 72000.00000 0 -719419.574 -11140598.001 -22926797.249 10 0 60740 72900.00000 0 1904051.370 -12109769.804 -22359469.311 10 0 60740 73800.00000 0 4361375.593 -13229248.583 -21357476.598 10 0 60740 74700.00000 0 6598312.620 -14456622.235 -19940243.837 10 0 60740 75600.00000 0 8570064.399 -15741330.616 -18135279.461 10 0 60740 76500.00000 0 10242890.578 -17026781.296 -15977644.105 10 0 60740 77400.00000 0 11595260.504 -18252739.677 -13509270.778 10 0 60740 78300.00000 0 12618494.483 -19357893.019 -10778149.559 10 0 60740 79200.00000 0 13316868.293 -20282480.221 -7837392.488 10 0 60740 80100.00000 0 13707177.529 -20970876.133 -4744196.944 10 0 60740 81000.00000 0 13817781.220 -21374020.831 -1558727.978 10 0 60740 81900.00000 0 13687166.259 -21451590.710 1657058.119 10 0 60740 82800.00000 0 13362094.512 -21173819.023 4840625.330 10 0 60740 83700.00000 0 12895412.200 -20522888.419 7930080.139 10 0 60740 84600.00000 0 12343615.413 -19493836.164 10865379.906 10 0 60740 85500.00000 0 11764275.802 -18094933.493 13589503.115 10 0 60741 0.00000 0 11213436.271 -16347523.013 16049558.134 10 0 60741 900.00000 0 10743087.056 -14285319.803 18197809.977 10 0 60741 1800.00000 0 10398829.887 -11953207.844 19992602.027 10 0 60741 2700.00000 0 10217827.867 -9405578.917 21399159.653 10 0 60741 3600.00000 0 10227128.045 -6704285.415 22390257.451 10 0 60741 4500.00000 0 10442426.686 -3916291.226 22946739.381 10 0 60741 5400.00000 0 10867328.804 -1111118.090 23057882.387 10 0 60741 6300.00000 0 11493132.699 1641807.205 22721597.309 10 0 60741 7200.00000 0 12299148.246 4275795.560 21944463.873 10 0 60741 8100.00000 0 13253535.502 6729419.699 20741599.562 10 0 60741 9000.00000 0 14314628.528 8948816.262 19136365.087 10 0 60741 9900.00000 0 15432689.173 10889671.610 17159912.097 10 0 60741 10800.00000 0 16552017.667 12518810.219 14850581.572 10 0 60741 11700.00000 0 17613331.947 13815320.928 12253164.042 10 0 60741 12600.00000 0 18556316.282 14771175.324 9418035.432 10 0 60741 13500.00000 0 19322232.532 15391313.575 6400184.654 10 0 60741 14400.00000 0 19856484.485 15693195.115 3258151.281 10 0 60741 15300.00000 0 20111027.444 15705833.788 52893.544 10 0 60741 16200.00000 0 20046521.433 15468358.686 -3153391.645 10 0 60741 17100.00000 0 19634136.918 15028161.691 -6298473.861 10 0 60741 18000.00000 0 18856936.345 14438710.177 -9321296.033 10 0 60741 18900.00000 0 17710772.416 13757117.389 -12163159.502 10 0 60741 19800.00000 0 16204664.264 13041573.224 -14768864.093 10 0 60741 20700.00000 0 14360634.469 12348744.033 -17087780.890 10 0 60741 21600.00000 0 12213012.476 11731251.349 -19074836.806 10 0 60741 22500.00000 0 9807232.235 11235336.076 -20691391.795 10 0 60741 23400.00000 0 7198173.071 10898806.884 -21905991.669 10 0 60741 24300.00000 0 4448111.820 10749359.529 -22694981.947 10 0 60741 25200.00000 0 1624370.463 10803338.280 -23042970.859 10 0 60741 26100.00000 0 -1203243.759 11064992.017 -22943132.463 10 0 60741 27000.00000 0 -3965100.101 11526256.829 -22397343.856 10 0 60741 27900.00000 0 -6594398.010 12167074.830 -21416153.557 10 0 60741 28800.00000 0 -9029702.983 12956236.359 -20018581.291 10 0 60741 29700.00000 0 -11217259.597 13852710.649 -18231752.602 10 0 60741 30600.00000 0 -13112985.910 14807409.406 -16090374.864 10 0 60741 31500.00000 0 -14684066.493 15765309.260 -13636064.406 10 0 60741 32400.00000 0 -15910078.124 16667843.714 -10916537.478 10 0 60741 33300.00000 0 -16783601.677 17455463.534 -7984680.569 10 0 60741 34200.00000 0 -17310295.300 18070257.112 -4897518.241 10 0 60741 35100.00000 0 -17508426.752 18458519.546 -1715098.873 10 0 60741 36000.00000 0 -17407885.650 18573161.157 1500679.512 10 0 60741 36900.00000 0 -17048718.437 18375852.862 4687279.687 10 0 60741 37800.00000 0 -16479249.153 17838816.961 7782747.574 10 0 60741 38700.00000 0 -15753866.599 16946186.966 10726921.945 10 0 60741 39600.00000 0 -14930572.528 15694878.480 13462607.148 10 0 60741 40500.00000 0 -14068395.396 14094933.937 15936685.619 10 0 60741 41400.00000 0 -13224779.588 12169326.275 18101148.349 10 0 60741 42300.00000 0 -12453060.687 9953229.511 19914023.371 10 0 60741 43200.00000 0 -11800133.317 7492786.452 21340184.676 10 0 60741 44100.00000 0 -11304409.551 4843424.750 22352026.533 10 0 60741 45000.00000 0 -10994153.314 2067791.124 22929990.984 10 0 60741 45900.00000 0 -10886260.149 -766610.771 23062939.166 10 0 60741 46800.00000 0 -10985532.886 -3589981.375 22748360.169 10 0 60741 47700.00000 0 -11284482.957 -6332879.683 21992414.040 10 0 60741 48600.00000 0 -11763665.126 -8928862.026 20809808.624 10 0 60741 49500.00000 0 -12392531.242 -11316996.920 19223512.817 10 0 60741 50400.00000 0 -13130767.004 -13444152.798 17264311.735 10 0 60741 51300.00000 0 -13930055.682 -15266964.939 14970212.120 10 0 60741 52200.00000 0 -14736194.913 -16753401.015 12385709.006 10 0 60741 53100.00000 0 -15491477.844 -17883861.195 9560927.299 10 0 60741 54000.00000 0 -16137238.800 -18651767.979 6550654.295 10 0 60741 54900.00000 0 -16616456.473 -19063621.960 3413281.361 10 0 60741 55800.00000 0 -16876305.066 -19138521.968 209674.909 10 0 60741 56700.00000 0 -16870545.720 -18907170.264 -2998001.680 10 0 60741 57600.00000 0 -16561657.018 -18410405.104 -6147492.465 10 0 60741 58500.00000 0 -15922614.139 -17697322.704 -9177656.224 10 0 60741 59400.00000 0 -14938240.793 -16823067.964 -12029653.063 10 0 60741 60300.00000 0 -13606075.924 -15846387.176 -14648087.169 10 0 60741 61200.00000 0 -11936717.443 -14827046.010 -16982083.346 10 0 60741 62100.00000 0 -9953627.146 -13823221.607 -18986276.331 10 0 60741 63000.00000 0 -7692403.487 -12888978.752 -20621693.657 10 0 60741 63900.00000 0 -5199551.176 -12071936.427 -21856514.911 10 0 60741 64800.00000 0 -2530797.556 -11411223.029 -22666692.696 10 0 60741 65700.00000 0 250975.390 -10935806.371 -23036423.282 10 0 60741 66600.00000 0 3078098.431 -10663268.823 -22958457.747 10 0 60741 67500.00000 0 5880684.399 -10599079.267 -22434247.441 10 0 60741 68400.00000 0 8589293.461 -10736392.675 -21473920.704 10 0 60741 69300.00000 0 11137584.141 -11056385.985 -20096090.860 10 0 60741 70200.00000 0 13464840.364 -11529116.354 -18327498.795 10 0 60741 71100.00000 0 15518269.732 -12114865.785 -16202496.504 10 0 60741 72000.00000 0 17254977.561 -12765915.563 -13762381.198 10 0 60741 72900.00000 0 18643534.618 -13428675.548 -11054592.528 10 0 60741 73800.00000 0 19665073.431 -14046078.181 -8131788.357 10 0 60741 74700.00000 0 20313867.724 -14560135.610 -5050817.099 10 0 60741 75600.00000 0 20597371.365 -14914551.200 -1871606.935 10 0 60741 76500.00000 0 20535715.993 -15057274.178 1344005.995 10 0 60741 77400.00000 0 20160689.498 -14942888.491 4533486.839 10 0 60741 78300.00000 0 19514239.498 -14534733.929 7634824.398 10 0 60741 79200.00000 0 18646566.100 -13806668.987 10587742.019 10 0 60741 80100.00000 0 17613885.531 -12744400.215 13334872.707 10 0 60741 81000.00000 0 16475960.020 -11346321.326 15822875.124 10 0 60741 81900.00000 0 15293498.839 -9623826.140 18003468.565 10 0 60741 82800.00000 0 14125540.569 -7601081.738 19834366.874 10 0 60741 83700.00000 0 13026926.944 -5314270.906 21280093.569 10 0 60741 84600.00000 0 12045974.343 -2810335.136 22312663.039 10 0 60741 85500.00000 0 11222440.283 -145270.171 22912115.398 10 0 60742 0.00000 0 10585869.565 2617955.188 23066895.573 10 0 60742 900.00000 0 10154388.207 5411772.677 22774070.129 10 0 60742 1800.00000 0 9933995.576 8166579.056 22039378.262 10 0 60742 2700.00000 0 9918382.309 10813390.946 20877116.737 10 0 60742 3600.00000 0 10089281.730 13286477.287 19309860.929 10 0 60742 4500.00000 0 10417339.021 15525862.698 17368027.492 10 0 60742 5400.00000 0 10863461.352 17479598.735 15089286.815 10 0 60742 6300.00000 0 11380592.041 19105709.725 12517836.149 10 0 60742 7200.00000 0 11915834.130 20373733.158 9703546.950 10 0 60742 8100.00000 0 12412834.084 21265791.328 6701002.335 10 0 60742 9000.00000 0 12814325.269 21777150.236 3568442.803 10 0 60742 9900.00000 0 13064724.019 21916242.963 366640.234 10 0 60742 10800.00000 0 13112668.648 21704157.026 -2842278.235 10 0 60742 11700.00000 0 12913393.977 21173607.582 -5996033.787 10 0 60742 12600.00000 0 12430840.607 20367439.867 -9033403.530 10 0 60742 13500.00000 0 11639409.190 19336723.996 -11895408.600 10 0 60742 14400.00000 0 10525284.709 18138522.368 -14526459.560 10 0 60742 15300.00000 0 9087273.740 16833423.626 -16875436.659 10 0 60742 16200.00000 0 7337118.082 15482946.947 -18896683.909 10 0 60742 17100.00000 0 5299269.995 14146925.752 -20550897.620 10 0 60742 18000.00000 0 3010136.868 12880980.781 -21805892.114 10 0 60742 18900.00000 0 516825.319 11734188.607 -22637227.828 10 0 60742 19800.00000 0 -2124564.420 10747043.418 -23028689.587 10 0 60742 20700.00000 0 -4851024.050 9949797.545 -22972605.756 10 0 60742 21600.00000 0 -7595017.078 9361250.304 -22470001.925 10 0 60742 22500.00000 0 -10287055.007 8988035.900 -21530585.884 10 0 60742 23400.00000 0 -12858363.390 8824440.236 -20172563.831 10 0 60742 24300.00000 0 -15243527.425 8852754.188 -18422290.894 10 0 60742 25200.00000 0 -17383007.308 9044148.350 -16313762.251 10 0 60742 26100.00000 0 -19225418.751 9360032.204 -13887954.255 10 0 60742 27000.00000 0 -20729483.645 9753840.066 -11192028.009 10 0 60742 27900.00000 0 -21865569.523 10173168.020 -8278410.642 10 0 60742 28800.00000 0 -22616753.566 10562170.916 -5203772.207 10 0 60742 29700.00000 0 -22979366.890 10864117.356 -2027918.408 10 0 60742 30600.00000 0 -22962996.803 11023993.666 1187378.837 10 0 60742 31500.00000 0 -22589947.610 10991045.688 4379589.443 10 0 60742 32400.00000 0 -21894183.570 10721149.818 7486647.534 10 0 60742 33300.00000 0 -20919799.518 10178912.002 10448163.526 10 0 60742 34200.00000 0 -19719084.645 9339405.079 13206601.590 10 0 60742 35100.00000 0 -18350261.994 8189470.310 15708399.093 10 0 60742 36000.00000 0 -16874999.691 6728527.539 17905006.022 10 0 60742 36900.00000 0 -15355799.238 4968859.346 19753824.250 10 0 60742 37800.00000 0 -13853370.924 2935356.703 21219028.813 10 0 60742 38700.00000 0 -12424106.460 664736.288 22272255.907 10 0 60742 39600.00000 0 -11117754.455 -1795738.318 22893145.073 10 0 60742 40500.00000 0 -9975395.346 -4389978.844 23069725.997 10 0 60742 41400.00000 0 -9027799.573 -7055166.914 22798643.282 10 0 60742 42300.00000 0 -8294236.576 -9724134.698 22085215.569 10 0 60742 43200.00000 0 -7781783.201 -12327933.654 20943328.396 10 0 60742 44100.00000 0 -7485159.303 -14798485.686 19395163.088 10 0 60742 45000.00000 0 -7387096.411 -17071207.652 17470766.942 10 0 60742 45900.00000 0 -7459223.122 -19087501.223 15207472.738 10 0 60742 46800.00000 0 -7663429.488 -20797005.558 12649178.353 10 0 60742 47700.00000 0 -7953652.625 -22159519.859 9845499.891 10 0 60742 48600.00000 0 -8278008.214 -23146516.446 6850814.136 10 0 60742 49500.00000 0 -8581177.971 -23742181.758 3723208.327 10 0 60742 50400.00000 0 -8806952.327 -23943942.196 523357.226 10 0 60742 51300.00000 0 -8900820.851 -23762453.110 -2686651.032 10 0 60742 52200.00000 0 -8812500.793 -23221051.564 -5844517.666 10 0 60742 53100.00000 0 -8498296.500 -22354695.938 -8888941.155 10 0 60742 54000.00000 0 -7923189.407 -21208436.919 -11760806.802 10 0 60742 54900.00000 0 -7062569.531 -19835484.053 -14404334.702 10 0 60742 55800.00000 0 -5903534.328 -18294949.038 -16768163.656 10 0 60742 56700.00000 0 -4445698.881 -16649360.410 -18806349.891 10 0 60742 57600.00000 0 -2701481.856 -14962053.832 -20479261.155 10 0 60742 58500.00000 0 -695853.596 -13294547.330 -21754348.803 10 0 60742 59400.00000 0 1534444.763 -11704011.369 -22606782.929 10 0 60742 60300.00000 0 3942180.159 -10240939.565 -23019938.246 10 0 60742 61200.00000 0 6471352.601 -8947117.402 -22985721.216 10 0 60742 62100.00000 0 9059295.744 -7853973.794 -22504731.965 10 0 60742 63000.00000 0 11639066.707 -6981384.246 -21586257.579 10 0 60742 63900.00000 0 14142026.523 -6336975.470 -20248096.522 10 0 60742 64800.00000 0 16500504.377 -5915960.285 -18516217.135 10 0 60742 65700.00000 0 18650435.084 -5701509.303 -16424256.326 10 0 60742 66600.00000 0 20533859.956 -5665643.314 -14012867.707 10 0 60742 67500.00000 0 22101186.730 -5770608.213 -11328931.497 10 0 60742 68400.00000 0 23313114.033 -5970673.836 -8424641.319 10 0 60742 69300.00000 0 24142139.770 -6214279.972 -5356485.698 10 0 60742 70200.00000 0 24573590.249 -6446437.929 -2184144.366 10 0 60742 71100.00000 0 24606127.036 -6611285.081 1030678.682 10 0 60742 72000.00000 0 24251710.596 -6654683.175 4225461.910 10 0 60742 72900.00000 0 23535022.848 -6526749.332 7338088.478 10 0 60742 73800.00000 0 22492373.641 -6184211.556 10308059.382 10 0 60742 74700.00000 0 21170138.064 -5592488.122 13077673.163 10 0 60742 75600.00000 0 19622791.202 -4727402.121 15593148.698 10 0 60742 76500.00000 0 17910623.785 -3576458.052 17805669.032 10 0 60742 77400.00000 0 16097235.349 -2139626.057 19672325.981 10 0 60742 78300.00000 0 14246910.487 -429600.272 21156947.543 10 0 60742 79200.00000 0 12421988.188 1528480.065 22230792.717 10 0 60742 80100.00000 0 10680334.130 3697835.580 22873101.030 10 0 60742 81000.00000 0 9073020.949 6031344.752 23071487.066 10 0 60742 81900.00000 0 7642312.438 8473281.440 22822173.198 10 0 60742 82800.00000 0 6420034.687 10961420.346 22130056.783 10 0 60742 83700.00000 0 5426400.794 13429423.652 21008611.047 10 0 60742 84600.00000 0 4669336.863 15809410.558 19479621.834 10 0 60742 85500.00000 0 4144336.111 18034603.836 17572765.334 99